Theta_e
311 308 309 308 308 309 310 310 310 310 311 311 311 310 307 306 307 305 303 302 302 302 302 303 305 306 308 310 311 312 313 314 316 318 320 321 322 320 321 320 320 320 319 319
309 310 309 309 309 309 310 311 311 310 310 311 310 309 305 304 303 303 302 301 301 301 302 302 303 304 305 306 306 308 308 310 312 312 314 316 317 318 317 318 318 317 316 316
310 312 311 310 312 313 312 312 312 313 310 308 309 309 307 305 303 302 301 301 301 301 301 302 303 304 304 305 305 305 305 305 306 308 309 311 313 312 313 313 313 312 311 311
310 310 311 312 312 312 313 311 311 312 310 311 309 314 307 306 303 302 301 301 300 300 299 300 300 301 301 302 303 304 304 305 305 305 305 305 305 305 303 303 303 304 306 306
314 311 311 312 312 310 312 310 310 310 309 309 310 309 308 305 305 302 301 300 299 298 298 298 298 298 298 299 300 300 301 302 302 302 303 303 303 301 301 302 302 302 303 303
310 309 309 310 309 309 309 310 309 307 307 311 310 310 311 308 307 303 301 299 298 298 297 297 297 297 297 297 298 298 298 298 298 298 298 299 299 299 299 300 300 300 300 300
311 310 309 309 310 309 308 310 314 312 311 315 311 310 312 306 304 303 299 298 297 297 297 297 297 297 297 297 297 297 296 296 294 294 294 294 294 293 293 294 294 293 294 294
314 316 309 308 310 312 308 310 311 308 313 313 309 313 310 302 301 300 299 297 297 297 296 296 296 296 295 295 295 295 294 294 293 292 292 291 291 291 290 290 291 291 290 289
314 316 309 309 309 311 311 312 310 310 301 306 311 308 305 300 298 297 297 297 297 297 296 296 295 294 293 292 292 292 291 291 291 290 290 290 290 289 289 289 288 288 288 288
314 316 311 309 309 307 309 308 312 307 305 309 310 311 310 302 299 297 296 297 297 296 295 295 294 293 293 292 291 290 290 290 289 289 289 289 288 288 288 288 288 288 287 287
311 313 311 311 310 310 308 309 308 308 305 307 307 308 308 305 300 298 298 299 298 296 295 294 293 293 292 290 290 289 289 288 288 288 288 287 287 287 287 287 287 287 287 287
311 308 305 311 308 308 309 308 307 307 306 310 310 310 302 303 300 300 300 300 299 297 295 293 293 292 291 291 290 289 289 288 288 288 288 287 287 287 286 286 286 286 286 286
310 307 301 305 305 307 309 309 308 307 306 304 306 306 300 301 300 301 301 300 298 295 293 292 292 292 292 291 289 289 289 288 288 288 288 287 287 286 286 286 285 285 285 284
310 306 306 311 304 306 307 307 307 306 301 308 305 306 302 300 299 300 300 300 297 295 293 293 292 291 291 290 289 289 289 288 288 288 288 288 287 287 286 286 285 284 284 284
307 306 302 304 304 305 304 304 304 304 303 302 302 303 302 300 297 298 300 297 295 294 292 291 290 291 290 290 289 288 288 288 288 288 288 287 287 286 285 285 284 284 283 283
300 298 298 295 301 302 302 301 301 302 302 301 301 301 299 296 298 296 297 295 292 291 291 291 291 290 290 289 288 288 288 288 288 287 287 286 286 285 284 283 283 283 282 282
301 297 293 295 295 294 293 294 297 297 297 297 296 297 293 293 291 292 292 292 291 290 290 290 290 289 289 289 288 288 288 288 287 286 286 285 283 283 283 282 282 281 280 280
298 294 293 289 285 290 295 292 294 295 296 293 292 288 290 292 294 292 291 291 290 290 290 290 289 289 289 288 288 288 287 287 286 285 283 282 282 281 281 280 280 280 280 280
297 296 293 291 284 290 294 292 292 291 291 288 290 286 292 292 290 289 290 290 290 290 290 290 289 289 288 288 287 287 286 285 284 283 282 281 280 280 279 279 279 278 277 277
292 297 299 282 288 289 290 289 290 290 288 287 289 287 291 289 285 287 290 290 290 290 290 290 289 288 288 287 286 286 285 283 282 282 281 280 279 279 278 277 276 275 274 272
284 288 298 293 294 287 289 290 290 289 290 290 292 292 291 288 291 292 290 290 290 290 289 289 288 287 287 286 286 285 283 281 281 280 279 279 278 277 277 276 275 273 272 271
289 289 289 290 293 292 289 288 290 290 291 292 292 292 292 292 292 291 290 290 289 289 289 288 287 286 286 285 284 282 281 280 280 279 278 277 276 276 275 275 274 272 270 269
288 288 287 289 290 290 290 292 292 293 292 292 291 291 291 290 290 290 290 289 289 289 288 287 286 285 285 284 282 281 280 280 279 278 277 276 276 275 274 272 272 270 269 268
288 288 287 287 289 289 291 293 293 292 291 291 291 291 290 290 290 290 289 289 289 288 287 286 285 285 283 281 280 280 279 278 278 277 276 276 275 274 272 271 270 269 269 267
289 288 287 286 289 290 291 292 292 291 291 291 290 290 290 290 290 290 289 289 288 287 286 285 285 284 281 280 279 278 278 277 277 276 276 275 274 273 271 271 270 268 268 265
289 289 289 288 291 291 291 292 292 291 291 291 291 290 290 290 290 289 289 287 286 286 285 285 284 281 280 279 279 278 277 276 275 275 274 274 273 271 270 270 269 271 268 266
Wind_Speed
4 4 7 12 10 4 3 3 6 5 6 3 5 6 8 15 12 18 19 21 22 25 23 21 20 16 12 9 8 7 6 5 5 7 9 7 8 7 8 9 10 10 11 12
4 6 13 3 5 7 5 6 7 6 5 1 5 8 6 15 10 15 20 23 24 26 26 27 29 29 28 25 21 16 14 10 8 6 5 4 7 8 8 10 12 12 12 11
8 7 5 7 5 5 5 6 5 7 3 3 2 5 2 4 13 18 20 22 23 25 25 26 28 30 29 30 29 27 24 21 17 11 6 4 3 3 4 5 6 7 9 10
6 8 6 5 6 6 6 4 7 2 2 3 3 4 4 3 4 8 16 20 20 22 22 24 25 26 26 26 23 22 22 22 21 18 15 12 11 10 11 9 7 3 4 6
7 4 4 6 8 9 8 3 5 3 3 2 3 2 5 6 3 4 9 17 18 19 21 22 24 24 24 22 22 21 19 19 18 17 16 14 14 14 12 10 9 8 6 6
5 1 4 6 2 5 4 3 5 4 3 1 7 6 4 5 6 7 12 15 17 17 18 19 20 19 20 19 19 18 18 18 17 15 15 14 13 12 10 11 12 13 13 11
1 5 1 3 3 2 4 5 3 3 2 5 4 3 3 6 4 18 19 19 16 14 15 15 16 16 15 15 15 14 14 15 15 15 14 15 15 15 15 16 16 16 16 17
4 4 8 4 6 7 6 7 5 6 3 4 4 5 2 4 15 25 23 20 16 13 11 10 10 11 11 11 11 11 11 12 13 13 14 14 14 16 16 17 17 19 20 20
5 5 1 1 1 5 4 4 2 5 2 2 4 2 2 4 6 15 20 17 14 11 8 6 5 6 9 9 10 10 10 11 12 13 14 15 16 16 17 19 20 20 20 22
4 2 1 1 2 4 3 5 3 3 1 5 4 4 4 9 10 8 11 16 16 12 10 6 3 2 4 5 6 6 8 10 11 12 12 14 16 16 17 19 21 23 24 25
4 3 3 2 4 6 1 1 3 3 4 5 2 5 0 13 15 13 18 21 18 15 12 7 4 0 2 3 4 7 10 13 15 15 16 15 15 14 16 20 22 25 26 28
1 4 3 6 1 2 1 5 5 4 5 5 1 8 5 12 20 23 22 21 18 15 12 9 5 2 2 1 6 7 10 13 16 17 19 20 21 22 23 25 26 27 28 30
7 1 2 7 4 1 3 3 3 4 3 6 5 6 3 9 11 18 15 17 18 17 16 13 8 5 5 5 9 11 14 17 19 21 23 25 27 29 30 32 34 35 35 35
6 4 7 11 4 3 4 3 4 4 3 2 6 4 2 5 7 10 10 14 17 17 16 13 10 8 7 7 11 12 14 17 19 21 24 27 29 32 35 38 40 39 40 43
3 6 3 2 3 3 5 5 8 8 6 6 7 9 13 11 8 15 18 16 18 17 15 14 13 12 10 11 11 12 13 18 17 20 24 28 32 35 38 40 42 45 48 49
2 3 3 2 4 5 6 13 9 10 13 11 14 20 11 6 13 12 13 19 20 16 13 12 11 11 12 14 14 15 17 21 19 23 28 31 34 38 39 42 46 49 51 53
5 5 3 5 3 4 8 9 16 11 8 9 11 14 2 5 9 15 16 17 16 12 11 11 12 14 14 14 16 18 20 21 24 27 30 33 35 39 43 46 49 52 53 55
5 4 2 3 2 2 6 3 3 10 11 7 2 4 4 2 4 12 14 15 12 10 8 12 16 15 15 16 18 19 21 25 28 31 31 34 38 42 46 48 49 51 52 54
3 5 3 3 4 7 12 7 8 8 7 6 8 3 2 6 12 9 14 14 8 9 13 16 18 18 17 17 18 21 24 27 29 31 35 38 42 45 46 48 50 51 53 55
2 3 6 3 4 9 6 3 6 6 5 8 10 7 9 16 3 6 20 15 12 13 14 17 19 18 17 18 21 24 27 28 30 34 38 40 42 43 46 48 50 51 50 51
3 0 12 8 6 8 8 6 3 5 6 10 14 12 14 6 16 5 8 12 16 18 19 18 18 17 19 21 23 26 27 30 33 36 39 40 40 42 45 47 47 48 47 46
8 9 5 3 5 10 12 6 7 5 9 12 14 16 16 18 13 14 17 17 18 20 20 20 19 19 20 22 25 26 29 32 35 38 39 38 39 40 42 43 45 44 42 43
2 7 6 10 7 3 26 11 26 12 10 14 15 14 17 17 21 21 20 18 19 21 22 21 20 20 21 23 24 26 30 34 36 37 38 38 40 40 39 40 42 40 37 39
4 5 3 4 5 8 20 26 15 20 19 18 19 20 22 25 23 24 21 19 21 21 21 21 21 22 22 22 24 27 31 34 35 37 37 37 39 40 38 38 36 35 35 37
6 8 4 3 4 6 18 27 29 27 25 25 25 24 25 25 25 23 20 21 20 21 21 21 22 22 21 22 25 28 31 33 34 35 35 36 38 38 38 36 33 33 33 32
10 7 4 7 20 16 20 25 22 26 24 24 23 23 23 25 23 21 20 19 20 20 21 22 22 21 21 24 26 28 30 31 32 33 33 35 36 35 35 36 35 28 30 30
Wind_Direction
174 115 204 207 201 174 195 212 239 259 264 271 264 278 3 15 49 99 97 96 89 83 79 77 77 83 94 108 119 116 132 125 171 189 194 194 204 215 221 236 251 256 263 273
56 224 232 187 173 215 235 241 247 260 244 263 288 306 43 38 51 81 99 96 96 95 89 82 79 77 76 77 78 81 83 86 93 99 129 177 211 223 238 244 246 254 258 263
173 221 188 176 208 204 222 214 231 232 331 286 347 294 62 49 73 87 96 104 98 91 87 82 78 76 76 74 73 75 77 79 78 78 96 135 179 197 235 256 259 262 261 256
227 241 192 178 223 176 267 211 216 194 82 238 48 280 206 166 85 75 99 98 93 90 85 79 74 71 67 65 65 67 69 71 74 77 81 79 77 68 46 30 14 331 268 265
238 204 171 194 224 163 221 151 152 160 171 42 307 123 269 135 166 130 101 99 94 83 78 74 71 66 64 60 56 52 52 55 52 50 54 55 55 54 47 41 34 29 5 326
233 264 182 205 139 175 133 57 36 46 100 274 211 164 246 193 190 146 127 116 109 101 88 78 73 69 66 63 59 54 47 50 48 44 43 42 41 38 28 24 18 16 12 9
227 228 251 171 124 45 100 80 316 338 348 232 148 144 261 316 143 153 144 133 120 109 99 88 77 68 64 60 57 53 48 48 45 40 39 35 29 21 16 10 6 0 356 352
185 282 168 190 194 181 177 160 165 210 214 248 298 244 276 47 106 130 138 136 132 123 109 93 77 65 57 55 52 48 44 43 35 30 27 22 16 10 4 1 353 346 345 344
177 267 121 142 164 136 181 177 189 101 38 44 228 76 94 106 116 134 143 149 152 150 141 115 95 65 57 54 48 43 45 41 26 19 11 2 359 353 350 346 342 339 333 329
220 244 346 172 120 48 152 161 78 12 230 251 278 253 204 189 178 174 169 173 178 174 170 168 155 93 50 55 61 54 38 28 21 7 0 352 345 341 336 332 328 327 326 323
154 148 250 128 195 189 57 214 82 133 144 193 260 254 2 183 177 179 193 197 193 188 190 188 193 217 44 72 41 22 18 11 8 2 1 355 344 339 331 328 326 323 321 320
3 122 181 199 354 338 298 212 166 158 242 241 174 260 333 168 175 183 198 203 203 206 203 202 210 227 210 335 352 348 348 347 347 346 342 341 338 334 330 328 326 322 319 315
178 199 17 343 343 22 203 200 141 113 108 212 174 258 59 144 170 196 204 202 201 198 199 205 207 236 251 299 325 330 334 335 333 331 329 328 328 326 323 321 321 320 317 314
137 171 176 227 191 144 169 178 179 141 139 178 231 292 160 221 203 216 226 217 204 202 208 215 228 240 263 288 302 298 303 316 315 314 315 315 316 314 314 314 314 314 312 311
156 203 132 206 141 172 213 182 194 198 193 193 253 227 243 207 227 267 274 219 196 196 205 216 226 235 247 263 279 286 280 310 295 286 295 301 304 305 306 308 309 309 308 307
356 201 101 307 251 244 270 261 184 218 237 244 253 264 261 178 214 222 218 195 191 192 203 227 232 245 262 274 276 280 281 301 293 290 294 297 298 300 302 303 303 304 303 303
143 133 95 260 13 46 304 236 220 221 200 209 223 243 137 179 175 179 171 178 185 210 220 223 231 265 266 260 267 274 284 291 294 294 295 296 298 300 302 304 304 304 304 303
137 109 80 187 36 243 250 289 224 227 249 199 206 232 204 211 235 177 181 193 205 199 233 269 283 261 254 260 264 274 282 292 296 298 300 302 304 306 308 307 307 306 305 303
164 135 153 177 203 308 289 232 189 173 264 194 195 227 190 152 147 189 202 193 205 270 283 273 258 252 252 258 272 286 293 297 300 304 308 310 312 312 312 312 312 310 308 305
187 291 191 129 176 216 247 283 139 108 289 215 181 196 170 154 155 232 212 205 288 287 275 268 260 242 256 274 289 297 300 303 307 310 312 314 315 315 316 315 314 312 310 307
96 210 214 209 228 279 243 206 140 107 241 175 196 206 187 188 219 227 187 282 294 289 281 261 241 255 271 286 295 298 303 308 313 314 315 317 318 318 317 316 314 314 314 312
162 163 201 185 217 256 178 121 164 200 167 185 208 214 219 231 238 249 270 276 280 273 262 246 250 268 283 292 297 302 308 312 314 315 316 318 319 319 318 317 319 317 314 312
226 190 182 188 203 219 177 196 209 228 232 227 218 220 221 233 259 266 266 269 272 257 248 254 268 279 288 292 297 304 311 313 314 315 317 319 319 322 324 325 320 314 314 314
255 159 211 97 221 215 206 211 217 224 242 251 252 259 259 256 265 266 261 267 271 254 254 267 275 283 290 294 304 310 313 313 314 315 317 320 322 326 330 326 319 316 318 317
200 151 172 264 281 238 233 226 242 244 253 261 263 266 267 263 261 253 258 270 257 258 266 270 278 285 291 300 308 313 313 313 313 314 318 323 326 331 330 324 322 320 320 311
194 203 190 234 237 233 246 257 265 253 252 256 258 260 265 265 252 255 265 256 256 260 268 276 281 286 296 303 309 312 313 312 312 314 322 327 329 332 329 326 326 332 325 310